When you browse on this site, cookies collect data to enhance your experience and personalize the content and advertising you see.
Visit our Privacy Policy to learn more. By continuing to use the site, you agree to this use of cookies and data.
  • In Sweden
  • List of Countries
  • For 7 days
  • Water Temperature
  • Satellite Maps
  • Weather Map
  • Weather Widgets
  • user-avatar
    Login

    Hourly Weather Dalkow

    Today, 25 April, Thursday

    Time Temperature Precipitation Wind Pressure Humidity
    00:00 +13°C° 0 mm 5 mps 743 mmHg 79%
    01:00 +13°C° 0 mm 5 mps 743 mmHg 80%
    02:00 +13°C° 0 mm 5 mps 743 mmHg 82%
    03:00 +12°C° 0 mm 5 mps 742 mmHg 83%
    04:00 +12°C° 0 mm 5 mps 742 mmHg 84%
    05:00 +13°C° 0 mm 5 mps 742 mmHg 80%
    06:00 +15°C° 0 mm 5 mps 742 mmHg 76%
    07:00 +16°C° 0 mm 5 mps 742 mmHg 71%
    08:00 +17°C° 0 mm 5 mps 742 mmHg 65%
    09:00 +20°C° 0 mm 5 mps 743 mmHg 59%
    10:00 +22°C° 0 mm 5 mps 743 mmHg 53%
    11:00 +22°C° 0 mm 5 mps 743 mmHg 51%
    12:00 +23°C° 0 mm 5 mps 742 mmHg 49%
    13:00 +25°C° 0 mm 5 mps 742 mmHg 48%
    14:00 +25°C° 0 mm 4 mps 742 mmHg 47%
    15:00 +25°C° 0 mm 4 mps 742 mmHg 47%
    16:00 +25°C° 0 mm 3 mps 742 mmHg 47%
    17:00 +24°C° 0 mm 3 mps 742 mmHg 53%
    18:00 +21°C° 0 mm 3 mps 742 mmHg 60%
    19:00 +19°C° 0 mm 2 mps 742 mmHg 66%
    20:00 +18°C° 0 mm 2 mps 742 mmHg 68%
    21:00 +18°C° 0 mm 2 mps 742 mmHg 70%
    22:00 +17°C° 0 mm 2 mps 742 mmHg 72%
    23:00 +16°C° 0 mm 2 mps 742 mmHg 73%

    Tomorrow, 26 April, Friday

    Time Temperature Precipitation Wind Pressure Humidity
    00:00 +16°C° 0 mm 2 mps 742 mmHg 73%
    01:00 +14°C° 0 mm 3 mps 742 mmHg 74%
    02:00 +14°C° 0 mm 3 mps 741 mmHg 74%
    03:00 +14°C° 0 mm 3 mps 741 mmHg 75%
    04:00 +14°C° 0 mm 3 mps 741 mmHg 75%
    05:00 +15°C° 0 mm 4 mps 740 mmHg 71%
    06:00 +17°C° 0 mm 4 mps 740 mmHg 67%
    07:00 +19°C° 0 mm 5 mps 740 mmHg 64%
    08:00 +20°C° 0 mm 5 mps 739 mmHg 57%
    09:00 +22°C° 0 mm 5 mps 739 mmHg 51%
    10:00 +23°C° 0 mm 5 mps 739 mmHg 45%
    11:00 +25°C° 0 mm 5 mps 738 mmHg 44%
    12:00 +26°C° 0 mm 5 mps 738 mmHg 42%
    13:00 +26°C° 0 mm 4 mps 738 mmHg 40%
    14:00 +26°C° 0 mm 4 mps 738 mmHg 40%
    15:00 +26°C° 0 mm 4 mps 737 mmHg 40%
    16:00 +27°C° 0 mm 4 mps 737 mmHg 40%
    17:00 +25°C° 0 mm 3 mps 737 mmHg 46%
    18:00 +22°C° 0 mm 3 mps 737 mmHg 51%
    19:00 +21°C° 0 mm 2 mps 736 mmHg 57%
    20:00 +21°C° 0 mm 3 mps 736 mmHg 55%
    21:00 +20°C° 0 mm 4 mps 736 mmHg 54%
    22:00 +20°C° 0 mm 5 mps 736 mmHg 52%
    23:00 +19°C° 0 mm 5 mps 736 mmHg 55%

    Day after tomorrow, 27 April, Saturday

    Time Temperature Precipitation Wind Pressure Humidity
    00:00 +19°C° 0 mm 5 mps 736 mmHg 58%
    01:00 +17°C° 0 mm 5 mps 737 mmHg 61%
    02:00 +16°C° 0 mm 5 mps 737 mmHg 70%
    03:00 +15°C° 0 mm 6 mps 737 mmHg 79%
    04:00 +14°C° 0 mm 7 mps 737 mmHg 88%
    05:00 +14°C° 0 mm 7 mps 738 mmHg 85%
    06:00 +12°C° 0 mm 7 mps 738 mmHg 81%
    07:00 +12°C° 0 mm 7 mps 739 mmHg 78%
    08:00 +12°C° 0 mm 7 mps 739 mmHg 75%
    09:00 +14°C° 0 mm 7 mps 739 mmHg 72%
    10:00 +14°C° 0 mm 7 mps 740 mmHg 69%
    11:00 +14°C° 0 mm 7 mps 740 mmHg 68%
    12:00 +14°C° 0 mm 6 mps 740 mmHg 67%
    13:00 +14°C° 0 mm 6 mps 740 mmHg 66%
    14:00 +14°C° 0 mm 5 mps 740 mmHg 66%
    15:00 +14°C° 0 mm 5 mps 740 mmHg 66%
    16:00 +14°C° 0 mm 4 mps 740 mmHg 65%
    17:00 +14°C° 0 mm 4 mps 740 mmHg 66%
    18:00 +14°C° 0 mm 3 mps 740 mmHg 68%
    19:00 +13°C° 0 mm 3 mps 740 mmHg 69%
    20:00 +13°C° 0 mm 3 mps 741 mmHg 70%
    21:00 +13°C° 0 mm 2 mps 741 mmHg 72%
    22:00 +13°C° 0 mm 2 mps 741 mmHg 73%
    23:00 +12°C° 0 mm 2 mps 741 mmHg 75%

    28 April, Sunday

    Time Temperature Precipitation Wind Pressure Humidity
    00:00 +11°C° 0 mm 3 mps 741 mmHg 77%
    01:00 +10°C° 0 mm 3 mps 741 mmHg 79%
    02:00 +10°C° 0.1 mm 3 mps 741 mmHg 79%
    03:00 +10°C° 0.1 mm 3 mps 741 mmHg 79%
    04:00 +9°C° 0.1 mm 3 mps 742 mmHg 78%
    05:00 +9°C° 0.4 mm 3 mps 742 mmHg 78%
    06:00 +8°C° 0.4 mm 4 mps 742 mmHg 78%
    07:00 +8°C° 0.4 mm 4 mps 742 mmHg 78%
    08:00 +8°C° 0.4 mm 4 mps 742 mmHg 78%
    09:00 +8°C° 0.4 mm 4 mps 742 mmHg 77%
    10:00 +9°C° 0.4 mm 5 mps 743 mmHg 76%
    11:00 +9°C° 1.8 mm 5 mps 742 mmHg 79%
    12:00 +8°C° 1.8 mm 5 mps 742 mmHg 82%
    13:00 +8°C° 1.8 mm 5 mps 742 mmHg 84%
    14:00 +8°C° 2.5 mm 6 mps 742 mmHg 85%
    15:00 +8°C° 2.5 mm 6 mps 742 mmHg 86%
    16:00 +8°C° 2.5 mm 6 mps 742 mmHg 87%
    17:00 +8°C° 0.7 mm 5 mps 742 mmHg 89%
    18:00 +9°C° 0.7 mm 5 mps 742 mmHg 90%
    19:00 +9°C° 0.7 mm 5 mps 742 mmHg 92%
    20:00 +10°C° 0.2 mm 4 mps 742 mmHg 93%
    21:00 +10°C° 0.2 mm 4 mps 742 mmHg 95%
    22:00 +10°C° 0.2 mm 3 mps 742 mmHg 96%
    23:00 +11°C° 0.7 mm 4 mps 742 mmHg 97%

    29 April, Monday

    Time Temperature Precipitation Wind Pressure Humidity
    00:00 +11°C° 0.7 mm 4 mps 742 mmHg 97%
    01:00 +11°C° 0.7 mm 4 mps 741 mmHg 97%
    02:00 +11°C° 0.9 mm 4 mps 741 mmHg 97%
    03:00 +12°C° 0.9 mm 4 mps 741 mmHg 97%
    04:00 +12°C° 0.9 mm 4 mps 741 mmHg 96%
    05:00 +12°C° 0.2 mm 5 mps 741 mmHg 95%
    06:00 +12°C° 0.2 mm 5 mps 741 mmHg 94%
    07:00 +11°C° 0.2 mm 6 mps 741 mmHg 93%
    08:00 +11°C° 0.2 mm 6 mps 741 mmHg 92%
    09:00 +11°C° 0.2 mm 6 mps 741 mmHg 91%
    10:00 +10°C° 0.2 mm 6 mps 742 mmHg 91%
    11:00 +10°C° 1 mm 6 mps 741 mmHg 91%
    12:00 +9°C° 1 mm 6 mps 741 mmHg 91%
    13:00 +9°C° 1 mm 6 mps 741 mmHg 91%
    14:00 +9°C° 0.2 mm 6 mps 742 mmHg 90%
    15:00 +9°C° 0.2 mm 6 mps 742 mmHg 89%
    16:00 +9°C° 0.2 mm 6 mps 742 mmHg 88%
    17:00 +9°C° 0 mm 6 mps 742 mmHg 88%
    18:00 +8°C° 0 mm 6 mps 742 mmHg 89%
    19:00 +8°C° 0 mm 6 mps 742 mmHg 89%
    20:00 +8°C° 0 mm 6 mps 743 mmHg 89%
    21:00 +8°C° 0 mm 6 mps 743 mmHg 88%
    22:00 +7°C° 0 mm 6 mps 743 mmHg 88%
    23:00 +7°C° 0 mm 6 mps 744 mmHg 87%

    30 April, Tuesday

    Time Temperature Precipitation Wind Pressure Humidity
    00:00 +7°C° 0 mm 6 mps 744 mmHg 87%
    01:00 +7°C° 0 mm 6 mps 744 mmHg 86%
    02:00 +5°C° 0 mm 6 mps 744 mmHg 86%
    03:00 +5°C° 0 mm 6 mps 744 mmHg 86%
    04:00 +4°C° 0 mm 6 mps 744 mmHg 87%
    05:00 +5°C° 0 mm 6 mps 744 mmHg 83%
    06:00 +5°C° 0 mm 6 mps 745 mmHg 79%
    07:00 +6°C° 0 mm 7 mps 745 mmHg 75%
    08:00 +8°C° 0 mm 7 mps 745 mmHg 70%
    09:00 +9°C° 0 mm 7 mps 745 mmHg 64%
    10:00 +10°C° 0 mm 7 mps 745 mmHg 59%
    11:00 +11°C° 0 mm 7 mps 745 mmHg 57%
    12:00 +11°C° 0 mm 6 mps 745 mmHg 55%
    13:00 +13°C° 0 mm 6 mps 745 mmHg 53%
    14:00 +13°C° 0 mm 6 mps 745 mmHg 53%
    15:00 +13°C° 0 mm 6 mps 745 mmHg 53%
    16:00 +13°C° 0 mm 5 mps 745 mmHg 53%
    17:00 +12°C° 0 mm 5 mps 745 mmHg 57%
    18:00 +10°C° 0 mm 4 mps 745 mmHg 62%
    19:00 +9°C° 0 mm 3 mps 745 mmHg 67%
    20:00 +8°C° 0 mm 3 mps 745 mmHg 67%
    21:00 +8°C° 0 mm 3 mps 745 mmHg 67%
    22:00 +7°C° 0 mm 3 mps 745 mmHg 67%
    23:00 +5°C° 0 mm 3 mps 745 mmHg 68%
    Show more